Wind_Speed
26 28 30 30 31 31 32 34 35 35 35 32 29 29 28 27 25 25 24 24 22 20 20 19 18 16 16 17 16 16 17 16
28 30 33 34 35 37 38 38 37 38 38 35 33 32 30 28 28 28 26 25 26 24 22 22 21 20 20 19 19 19 19 20
32 34 36 38 39 41 42 42 40 39 39 38 38 36 33 31 29 31 28 27 27 27 27 26 25 25 24 23 23 22 20 22
35 36 38 40 42 42 45 44 41 39 39 39 39 37 36 34 33 33 31 29 29 30 29 29 28 28 27 27 26 25 24 24
39 40 41 44 45 46 46 42 39 36 38 39 41 44 33 38 36 35 32 31 32 33 31 30 31 30 29 28 28 27 26 26
41 41 43 45 45 46 43 38 36 35 36 38 40 42 34 38 38 38 36 37 30 29 30 31 32 31 31 32 32 30 29 27
41 41 43 43 42 40 39 38 34 34 33 38 41 41 38 41 43 40 40 36 33 34 35 34 34 31 32 33 32 32 32 31
37 38 40 39 38 37 37 36 34 33 35 40 44 42 41 47 45 38 45 40 36 37 38 38 36 34 34 33 34 32 31 30
36 38 39 38 38 38 37 32 33 34 40 43 49 45 44 37 50 56 37 41 39 39 41 39 37 36 33 37 36 32 33 30
35 36 36 35 36 35 31 30 29 34 39 50 49 37 38 46 41 49 41 41 45 43 45 42 39 37 36 41 39 36 34 33
34 34 34 34 32 30 22 23 28 33 30 41 31 31 29 32 38 40 48 42 49 47 47 49 43 37 40 40 40 39 37 37
30 27 26 27 24 22 20 21 24 27 28 33 35 36 35 40 46 41 38 39 39 44 54 53 38 44 42 42 44 42 43 40
22 21 22 23 25 26 26 30 27 29 33 33 34 35 34 36 37 38 26 34 42 46 56 48 41 40 43 46 48 45 42 42
19 20 22 24 26 27 29 29 33 32 35 35 37 38 37 39 42 42 32 34 38 42 33 27 30 35 45 44 47 47 45 41
21 23 24 24 24 26 29 32 36 40 42 43 43 42 41 42 42 44 40 41 39 42 24 33 32 28 32 39 37 38 38 41
24 25 26 25 28 30 32 36 39 43 45 46 50 49 51 45 40 39 41 39 37 40 44 51 48 39 38 42 46 41 40 43
28 30 30 31 33 37 40 41 43 44 46 50 50 53 56 54 49 44 43 45 46 46 47 49 51 46 46 42 41 43 44 45
30 30 32 38 42 43 44 46 47 47 48 48 51 54 57 57 58 58 59 54 48 46 45 44 45 46 50 49 47 44 47 48
32 35 37 41 43 42 41 42 44 45 47 48 49 51 51 53 51 48 51 51 50 48 45 42 43 44 44 47 49 49 46 48
38 40 42 38 37 38 37 34 38 40 40 41 44 46 47 48 52 55 57 56 57 56 54 52 47 44 46 47 49 49 49 48
Wind_Direction
302 306 312 316 314 314 314 313 310 309 308 305 301 298 296 293 291 284 286 287 284 284 287 287 288 292 296 300 302 302 304 304
301 301 302 303 302 310 312 310 308 307 306 301 296 293 291 285 288 281 277 280 283 283 281 283 284 284 286 288 294 297 295 297
300 299 300 300 301 302 305 307 303 300 300 300 296 291 287 282 279 277 269 274 278 280 279 277 279 282 282 286 288 290 290 285
297 297 297 297 297 298 300 303 300 295 294 292 288 285 286 278 269 272 268 266 270 273 274 276 277 278 282 283 285 287 287 284
300 297 297 297 298 297 299 300 298 294 292 291 287 286 284 276 271 269 266 263 263 269 273 275 278 282 281 284 285 287 285 283
297 296 294 294 296 297 298 295 295 293 295 293 285 288 284 277 269 265 263 263 265 266 270 273 276 280 283 283 290 289 286 281
298 296 294 294 295 296 297 296 298 296 295 289 283 291 290 276 268 262 260 262 268 270 273 275 275 280 282 277 285 292 287 284
295 292 293 294 296 294 296 301 303 302 297 290 284 285 283 271 261 269 241 254 261 265 270 275 279 279 279 281 278 284 284 282
293 292 294 296 296 297 299 300 303 304 301 290 275 275 278 306 257 239 258 267 266 261 264 268 273 278 280 280 277 276 281 277
294 292 293 295 296 298 306 314 314 311 311 316 282 277 279 280 300 279 256 255 273 259 259 259 267 272 278 279 276 276 277 278
291 290 294 297 295 302 314 315 311 321 323 335 312 311 314 319 341 317 259 271 274 265 265 266 265 261 271 277 274 274 276 276
288 291 291 290 295 303 313 322 322 320 318 317 325 326 326 329 331 328 326 317 293 287 282 272 274 265 272 277 276 273 275 275
287 283 283 286 292 304 310 309 307 314 314 313 315 318 315 303 315 318 311 321 316 308 291 290 285 271 269 279 280 280 270 274
288 282 280 286 293 299 302 305 309 305 304 303 308 310 305 308 305 310 300 312 303 304 318 280 294 294 269 286 290 283 274 265
275 273 277 285 290 298 306 308 310 309 308 305 307 307 304 302 303 306 303 309 307 303 293 285 285 286 278 279 286 279 274 268
266 268 273 288 302 303 303 304 304 303 306 305 304 303 301 301 299 295 295 291 289 290 291 291 295 289 286 281 284 283 276 272
270 273 279 296 304 308 308 305 303 300 300 301 299 298 299 302 303 303 298 294 294 292 291 292 290 287 284 278 279 279 277 275
274 284 291 297 304 307 306 305 300 293 290 290 291 293 295 297 301 306 306 306 303 300 297 291 287 284 280 278 276 272 274 275
282 301 304 305 306 306 304 294 293 293 294 294 295 295 295 298 304 308 307 304 302 299 294 286 283 279 272 270 271 271 263 265
289 299 303 306 308 298 291 290 291 294 297 297 299 298 295 299 301 305 306 304 301 299 297 294 291 283 275 271 266 265 265 262
Height
5888 5886 5883 5881 5878 5876 5873 5871 5869 5866 5864 5862 5859 5857 5855 5853 5852 5850 5849 5849 5849 5849 5849 5849 5848 5847 5846 5844 5843 5843 5842 5841
5884 5882 5878 5876 5874 5872 5869 5867 5864 5861 5859 5857 5855 5853 5850 5849 5847 5845 5844 5843 5844 5844 5844 5844 5844 5843 5842 5841 5840 5839 5838 5837
5880 5877 5874 5871 5870 5867 5865 5862 5858 5855 5854 5852 5850 5847 5845 5843 5842 5840 5838 5838 5838 5838 5839 5839 5838 5838 5838 5837 5836 5835 5834 5831
5875 5872 5869 5867 5864 5863 5859 5856 5852 5850 5848 5846 5843 5841 5840 5838 5834 5834 5833 5832 5832 5832 5832 5833 5833 5833 5833 5832 5832 5830 5830 5827
5870 5867 5864 5860 5857 5855 5852 5850 5846 5844 5842 5840 5837 5834 5832 5831 5829 5827 5826 5826 5825 5827 5827 5827 5827 5828 5827 5827 5826 5826 5825 5823
5863 5861 5857 5854 5851 5848 5845 5842 5841 5838 5836 5833 5831 5827 5827 5824 5823 5819 5818 5815 5817 5821 5821 5822 5822 5821 5821 5820 5820 5820 5819 5818
5857 5855 5851 5848 5845 5843 5839 5837 5836 5833 5831 5827 5824 5822 5822 5818 5815 5812 5810 5810 5813 5815 5815 5815 5815 5816 5814 5813 5813 5813 5812 5812
5851 5848 5843 5842 5839 5836 5834 5833 5831 5829 5825 5822 5818 5817 5814 5810 5808 5803 5801 5802 5805 5807 5809 5809 5810 5810 5809 5809 5807 5807 5807 5807
5845 5842 5838 5836 5834 5832 5829 5829 5827 5825 5821 5816 5811 5807 5805 5808 5798 5788 5798 5795 5799 5800 5802 5803 5804 5804 5805 5804 5802 5800 5801 5800
5839 5835 5833 5831 5828 5826 5826 5823 5821 5819 5815 5809 5805 5801 5805 5799 5803 5797 5794 5792 5791 5793 5794 5793 5796 5799 5798 5797 5797 5795 5794 5793
5831 5828 5827 5825 5823 5820 5819 5817 5815 5813 5808 5804 5802 5800 5799 5796 5793 5783 5783 5784 5786 5785 5787 5786 5788 5790 5790 5789 5790 5789 5787 5786
5823 5822 5820 5819 5818 5816 5814 5812 5810 5808 5803 5799 5797 5796 5794 5790 5787 5782 5782 5784 5782 5782 5780 5777 5780 5781 5779 5780 5780 5780 5780 5779
5819 5816 5815 5815 5813 5812 5810 5807 5804 5802 5800 5796 5793 5790 5788 5787 5784 5783 5781 5779 5774 5773 5768 5770 5770 5773 5770 5771 5771 5769 5770 5770
5814 5812 5810 5809 5809 5807 5804 5801 5797 5795 5792 5791 5788 5786 5784 5779 5777 5775 5772 5769 5766 5762 5762 5764 5763 5764 5762 5764 5762 5761 5760 5761
5808 5807 5805 5803 5802 5801 5799 5795 5792 5788 5785 5782 5780 5777 5774 5772 5768 5765 5764 5763 5762 5760 5758 5756 5756 5754 5756 5755 5754 5752 5750 5752
5802 5801 5799 5797 5796 5794 5792 5789 5786 5782 5777 5773 5769 5767 5765 5762 5761 5759 5757 5755 5754 5753 5751 5748 5747 5746 5746 5744 5742 5742 5742 5741
5796 5794 5793 5791 5788 5786 5783 5780 5778 5775 5772 5768 5763 5758 5754 5750 5747 5747 5746 5746 5743 5742 5739 5737 5735 5734 5733 5733 5731 5729 5729 5729
5788 5788 5786 5784 5781 5777 5774 5771 5768 5765 5762 5758 5755 5750 5746 5743 5739 5735 5732 5730 5729 5727 5726 5726 5724 5723 5721 5719 5718 5718 5716 5715
5782 5780 5778 5774 5771 5769 5765 5761 5758 5754 5751 5748 5745 5742 5739 5737 5733 5730 5727 5723 5720 5717 5714 5712 5710 5709 5707 5706 5704 5702 5701 5701
5771 5770 5769 5765 5763 5760 5756 5752 5749 5745 5741 5738 5734 5731 5730 5728 5724 5720 5716 5713 5708 5703 5700 5698 5696 5695 5693 5691 5690 5688 5687 5685